Yiewsley, United Kingdom

11:48 AM BST on May 28, 2017 (GMT +0100)
Yiewsley

Weather History for 03772 - July, 2013

Change the Weather History Date:

Wednesday, July 17, 2013

  Actual Average Record
Temperature  
Mean Temperature 76 °F -  
Max Temperature 89 °F 72 °F - ()
Min Temperature 64 °F 56 °F - ()
Cooling Degree Days 12    
Growing Degree Days 26 (Base 50)    
Moisture  
Dew Point 56 °F    
Average Humidity 49    
Maximum Humidity 82    
Minimum Humidity 24    
Precipitation  
Precipitation 0.00 in - - ()
Sea Level Pressure  
Sea Level Pressure 30.23 in    
Wind  
Wind Speed 5 mph ()    
Max Wind Speed 12 mph    
Max Gust Speed -    
Visibility 10.1 miles    
Events      
T = Trace of Precipitation, MM = Missing Value Source: Averaged Metar Reports

Daily Weather History Graph

Daily Weather History Graph

Search for Another Location

Airport or City:

Trip Planner

Search our weather history database for the weather conditions in past years. The results will help you decide how hot, cold, wet, or windy it might be!

Date:

Astronomy

Jul. 17, 2013 Rise Set
Actual Time 5:04 AM BST 9:10 PM BST
Civil Twilight 4:20 AM BST 9:54 PM BST
Nautical Twilight 3:17 AM BST 10:56 PM BST
Astronomical Twilight 1:40 AM BST 12:35 AM BST
Moon 3:31 PM BST (7/17) 12:18 AM BST (7/17)
Length of Visible Light 17h 33m
Length of Day
16h 05m
Waxing Gibbous, 64% of the Moon is Illuminated
Jul 17
Waxing Gibbous
Jul 22
Full
Jul 29
Last Quarter
Aug 6
New
Aug 14
First Quarter

Hourly Weather History & Observations

Time (BST) Temp. Heat Index Dew Point Humidity Pressure Visibility Wind Dir Wind Speed Gust Speed Precip Events Conditions
12:20 AM 71.6 °F - 55.4 °F 57% 30.21 in - SSW 6.9 mph - N/A   Clear
12:50 AM 71 °F - 54 °F 45% 30.22 in 14 mi SSW 5.8 mph - -  
12:50 AM 71.6 °F - 55.4 °F 57% 30.21 in - SSW 5.8 mph - N/A   Clear
1:20 AM 69.8 °F - 55.4 °F 60% 30.21 in - SSW 5.8 mph - N/A   Clear
1:50 AM 69 °F - 54 °F 48% 30.22 in 11 mi South 5.8 mph - -  
1:50 AM 69.8 °F - 55.4 °F 60% 30.21 in - South 6.9 mph - N/A   Clear
2:20 AM 68.0 °F - 55.4 °F 64% 30.21 in 6.2 mi South 4.6 mph - N/A   Unknown
2:50 AM 68 °F - 54 °F 51% 30.22 in 14 mi South 5.8 mph - -  
2:50 AM 68.0 °F - 55.4 °F 64% 30.21 in 6.2 mi SSW 5.8 mph - N/A   Unknown
3:20 AM 66.2 °F - 55.4 °F 68% 30.21 in 6.2 mi SSW 5.8 mph - N/A   Unknown
3:50 AM 66 °F - 54 °F 55% 30.22 in 13 mi SW 4.6 mph - -  
3:50 AM 62.6 °F - 55.4 °F 77% 30.21 in 6.2 mi SW 4.6 mph - N/A   Unknown
4:20 AM 62.6 °F - 55.4 °F 77% 30.21 in - SW 4.6 mph - N/A   Clear
4:50 AM 66 °F - 55 °F 60% 30.22 in 14 mi West 3.5 mph - -  
4:50 AM 62.6 °F - 55.4 °F 77% 30.21 in - West 4.6 mph - N/A   Clear
5:20 AM 62.6 °F - 57.2 °F 82% 30.21 in - Variable 2.3 mph - N/A   Clear
5:50 AM 64 °F - 55 °F 65% 30.23 in 11 mi NW 2.3 mph - -  
5:50 AM 62.6 °F - 57.2 °F 82% 30.24 in - NW 2.3 mph - N/A   Clear
6:20 AM 64.4 °F - 57.2 °F 77% 30.24 in - Calm Calm - N/A   Clear
6:50 AM 67 °F - 56 °F 60% 30.24 in 9 mi NW 2.3 mph - -  
6:50 AM 66.2 °F - 57.2 °F 73% 30.24 in - Calm Calm - N/A   Clear
7:20 AM 68.0 °F - 57.2 °F 68% 30.24 in - Variable 3.5 mph - N/A   Clear
7:50 AM 72 °F - 57 °F 49% 30.25 in 9 mi North 3.5 mph - -  
7:50 AM 69.8 °F - 57.2 °F 64% 30.24 in - Variable 2.3 mph - N/A   Clear
8:20 AM 71.6 °F - 57.2 °F 60% 30.24 in - Variable 3.5 mph - N/A   Clear
8:50 AM 75 °F - 57 °F 43% 30.25 in 8 mi East 3.5 mph - -  
8:50 AM 73.4 °F - 59.0 °F 61% 30.24 in - Variable 3.5 mph - N/A   Clear
9:20 AM 75.2 °F - 59.0 °F 57% 30.24 in - Variable 2.3 mph - N/A   Clear
9:50 AM 78 °F - 57 °F 38% 30.25 in 11 mi ESE 3.5 mph - -  
9:50 AM 77.0 °F - 57.2 °F 50% 30.24 in - Variable 3.5 mph - N/A   Clear
10:20 AM 78.8 °F - 57.2 °F 47% 30.24 in - SSE 5.8 mph - N/A   Clear
10:50 AM 80 °F - 55 °F 31% 30.25 in 13 mi SE 5.8 mph - -  
10:50 AM 80.6 °F 81.1 °F 59.0 °F 48% 30.24 in - SE 5.8 mph - N/A   Clear
11:20 AM 80.6 °F 80.8 °F 57.2 °F 45% 30.24 in - ESE 5.8 mph - N/A   Clear
11:50 AM 82 °F - 56 °F 30% 30.24 in 12 mi SE 5.8 mph - -  
11:50 AM 82.4 °F 82.0 °F 57.2 °F 42% 30.24 in - SSW 5.8 mph - N/A   Clear
12:20 PM 84.2 °F 83.0 °F 55.4 °F 37% 30.24 in - Variable 4.6 mph - N/A   Clear
12:50 PM 85 °F - 55 °F 25% 30.24 in 11 mi SW 4.6 mph - -  
12:50 PM 84.2 °F 83.0 °F 55.4 °F 37% 30.24 in - East 5.8 mph - N/A   Clear
1:20 PM 86.0 °F 84.5 °F 55.4 °F 35% 30.24 in - Variable 5.8 mph - N/A   Clear
1:50 PM 88 °F - 56 °F 24% 30.23 in 12 mi SW 8.9 mph - -   Scattered Clouds
1:50 PM 87.8 °F 86.1 °F 55.4 °F 33% 30.24 in - South 8.1 mph - N/A   Clear
2:20 PM 87.8 °F 86.1 °F 55.4 °F 33% 30.24 in - SSE 8.1 mph - N/A   Clear
2:50 PM 85 °F - 54 °F 25% 30.23 in 14 mi NNE 4.6 mph - -   Partly Cloudy
2:50 PM 87.8 °F 86.1 °F 55.4 °F 33% 30.21 in - SE 6.9 mph - N/A   Clear
3:20 PM 87.8 °F 85.7 °F 53.6 °F 31% 30.21 in - Variable 3.5 mph - N/A   Clear
3:50 PM 89.6 °F 87.3 °F 53.6 °F 29% 30.21 in - Variable 3.5 mph - N/A   Clear
4:20 PM 87.8 °F - 51.8 °F 29% 30.21 in - Variable 2.3 mph - N/A   Clear
4:50 PM 85 °F - 53 °F 24% 30.21 in 12 mi East 6.9 mph - -   Mostly Cloudy
4:50 PM 86.0 °F 84.2 °F 53.6 °F 33% 30.21 in - ESE 5.8 mph - N/A   Clear
5:20 PM 86.0 °F 84.2 °F 53.6 °F 33% 30.21 in - Variable 3.5 mph - N/A   Clear
5:50 PM 84.2 °F 82.8 °F 53.6 °F 35% 30.21 in - Variable 2.3 mph - N/A   Clear
6:20 PM 86.0 °F 84.2 °F 53.6 °F 33% 30.21 in - East 8.1 mph - N/A   Clear
6:50 PM 84 °F - 58 °F 30% 30.21 in 9 mi ESE 11.5 mph - -   Partly Cloudy
6:50 PM 84.2 °F 83.5 °F 57.2 °F 40% 30.21 in 6.2 mi SE 10.4 mph - N/A   Partly Cloudy
7:20 PM 82.4 °F 82.0 °F 57.2 °F 42% 30.21 in 6.2 mi SSW 11.5 mph - N/A   Partly Cloudy
7:50 PM 80.6 °F 80.8 °F 57.2 °F 45% 30.21 in 6.2 mi South 10.4 mph - N/A   Partly Cloudy
8:20 PM 78.8 °F - 57.2 °F 47% 30.24 in - SSW 9.2 mph - N/A   Clear
8:50 PM 78.8 °F - 57.2 °F 47% 30.24 in - SSW 11.5 mph - N/A   Clear
9:20 PM 77.0 °F - 57.2 °F 50% 30.24 in - SSW 6.9 mph - N/A   Clear
9:50 PM 76 °F - 55 °F 38% 30.27 in 12 mi SW 5.8 mph - -   Scattered Clouds
9:50 PM 77.0 °F - 55.4 °F 47% 30.27 in - SSW 5.8 mph - N/A   Clear
10:20 PM 75.2 °F - 55.4 °F 50% 30.27 in - Variable 3.5 mph - N/A   Clear
10:50 PM 75.2 °F - 55.4 °F 50% 30.27 in - Variable 2.3 mph - N/A   Clear
11:20 PM 75.2 °F - 53.6 °F 47% 30.27 in - Variable 2.3 mph - N/A   Clear
11:50 PM 73.4 °F - 57.2 °F 57% 30.27 in - East 5.8 mph - N/A   Clear